Honolulu, HI

2:09 PM HST on October 20, 2017 (GMT -1000)
Honolulu International

Weather History for PHNL - June, 2014

Change the Weather History Date:

Tuesday, June 3, 2014

  Actual Average Record
Temperature  
Mean Temperature 80 °F 79 °F  
Max Temperature 88 °F 86 °F 90 °F (1989)
Min Temperature 72 °F 73 °F 66 °F (1982)
Degree Days  
Heating Degree Days 0 0  
Month to date heating degree days 0 0  
Since 1 June heating degree days 0 0  
Since 1 July heating degree days 0 0  
Cooling Degree Days 15 14  
Month to date cooling degree days 45 42  
Year to date cooling degree days 1654 1544  
Since 1 June cooling degree days 45 42  
Growing Degree Days 30 (Base 50)    
Moisture  
Dew Point 66 °F    
Average Humidity 65    
Maximum Humidity 84    
Minimum Humidity 45    
Precipitation  
Precipitation 0.00 in 0.01 in 0.92 in (2011)
Month to date precipitation T 0.03  
Year to date precipitation 9.97 7.60  
Snow  
Snow 0.00 in - - ()
Month to date snowfall 0.0  
Since 1 June snowfall 0.0  
Since 1 July snowfall 0.0  
Snow Depth 0.00 in    
Sea Level Pressure  
Sea Level Pressure 29.96 in    
Wind  
Wind Speed 8 mph (NE)    
Max Wind Speed 18 mph    
Max Gust Speed 26 mph    
Visibility 10 miles    
Events      
T = Trace of Precipitation, MM = Missing Value Source: NWS Daily Summary

Daily Weather History Graph

Daily Weather History Graph

Search for Another Location

Airport or City:

Trip Planner

Search our weather history database for the weather conditions in past years. The results will help you decide how hot, cold, wet, or windy it might be!

Date:

Astronomy

Jun. 03, 2014 Rise Set
Actual Time 5:48 AM HST 7:10 PM HST
Civil Twilight 5:24 AM HST 7:35 PM HST
Nautical Twilight 4:55 AM HST 8:04 PM HST
Astronomical Twilight 4:24 AM HST 8:35 PM HST
Moon 10:56 AM HST (6/3) 11:46 PM HST (6/3)
Length of Visible Light 14h 11m
Length of Day
13h 21m
Waxing Crescent, 32% of the Moon is Illuminated
Jun 3
Waxing Crescent
Jun 5
First Quarter
Jun 12
Full
Jun 19
Last Quarter
Jun 26
New

Hourly Weather History & Observations

Time (HST) Temp. Heat Index Dew Point Humidity Pressure Visibility Wind Dir Wind Speed Gust Speed Precip Events Conditions
12:53 AM 75.9 °F - 66.9 °F 74% 29.95 in 10.0 mi NE 5.8 mph - N/A   Partly Cloudy
1:53 AM 75.9 °F - 66.0 °F 71% 29.94 in 10.0 mi ENE 5.8 mph - N/A   Partly Cloudy
2:53 AM 73.9 °F - 66.0 °F 76% 29.92 in 10.0 mi ENE 4.6 mph - N/A   Partly Cloudy
3:53 AM 73.0 °F - 66.0 °F 79% 29.94 in 10.0 mi Calm Calm - N/A   Partly Cloudy
4:53 AM 72.0 °F - 66.0 °F 81% 29.95 in 10.0 mi NW 3.5 mph - N/A   Partly Cloudy
5:53 AM 73.0 °F - 64.9 °F 76% 29.96 in 10.0 mi NNW 3.5 mph - N/A   Scattered Clouds
6:53 AM 75.0 °F - 66.0 °F 73% 29.97 in 10.0 mi NW 3.5 mph - N/A   Scattered Clouds
7:53 AM 79.0 °F - 66.0 °F 64% 29.98 in 10.0 mi NE 6.9 mph - N/A   Scattered Clouds
8:53 AM 81.0 °F 82.7 °F 64.9 °F 58% 29.99 in 10.0 mi ESE 6.9 mph - N/A   Scattered Clouds
9:53 AM 81.0 °F 83.3 °F 66.9 °F 62% 29.99 in 10.0 mi SSE 8.1 mph - N/A   Scattered Clouds
10:53 AM 82.0 °F 84.5 °F 66.9 °F 60% 29.99 in 10.0 mi SE 8.1 mph - N/A   Scattered Clouds
11:53 AM 86.0 °F 86.8 °F 63.0 °F 46% 29.97 in 10.0 mi NE 11.5 mph - N/A   Scattered Clouds
12:53 PM 87.1 °F 88.9 °F 64.9 °F 48% 29.96 in 10.0 mi NNE 13.8 mph - N/A   Scattered Clouds
1:53 PM 87.1 °F 88.9 °F 64.9 °F 48% 29.95 in 10.0 mi NE 16.1 mph - N/A   Scattered Clouds
2:53 PM 87.1 °F 88.3 °F 64.0 °F 46% 29.93 in 10.0 mi ENE 17.3 mph 23.0 mph N/A   Scattered Clouds
3:53 PM 84.9 °F 86.6 °F 64.9 °F 51% 29.92 in 10.0 mi NE 15.0 mph 26.5 mph N/A   Scattered Clouds
4:53 PM 82.9 °F 84.6 °F 64.9 °F 54% 29.93 in 10.0 mi NNE 12.7 mph - N/A   Scattered Clouds
5:53 PM 82.0 °F 83.4 °F 64.0 °F 54% 29.94 in 10.0 mi ENE 16.1 mph 23.0 mph N/A   Scattered Clouds
6:53 PM 79.0 °F - 64.9 °F 62% 29.96 in 10.0 mi ENE 16.1 mph - N/A   Scattered Clouds
7:53 PM 79.0 °F - 66.0 °F 64% 29.98 in 10.0 mi NE 5.8 mph - N/A   Scattered Clouds
8:53 PM 78.1 °F - 66.0 °F 66% 29.99 in 10.0 mi NE 12.7 mph - N/A   Scattered Clouds
9:53 PM 78.1 °F - 66.0 °F 66% 30.00 in 10.0 mi ENE 11.5 mph - N/A   Mostly Cloudy
10:53 PM 77.0 °F - 66.0 °F 69% 30.01 in 10.0 mi ENE 8.1 mph - N/A   Mostly Cloudy
11:53 PM 77.0 °F - 66.0 °F 69% 30.00 in 10.0 mi ENE 8.1 mph - N/A   Mostly Cloudy